Tracking 18840 objects as of 18-November-2017
HD Live streaming from Space Station
objects crossing your sky now

NIMBUS 2 DEB

Track NIMBUS 2 DEB now!
10-day predictions


NORAD ID: 28615
Int'l Code: 1966-040AE
Perigee: 988.8 km
Apogee: 1,046.5 km
Inclination: 100.3 °
Period: 105.3 minutes
Semi major axis: 7388 km
RCS: 0.0093 m2 (small)
Launch date: May 15, 1966
Source: United States (US)
Launch site: AIR FORCE WESTERN TEST RANGE (AFWTR)

Note: This is SATELLITE DEBRIS
aabbcc
Your satellite tracking list
Your tracking list is empty




NASA's NSSDC Master Catalog

Two Line Element Set (TLE):
1 28615U 66040AE  17322.44793031  .00001505  00000-0  18511-2 0  9993
2 28615 100.2592 195.3275 0038993 192.9304 291.4995 13.66960860724024
Source of the keplerian elements: AFSPC